[[{"header":{"parameterUnit":"m.s-1","parameterCategory":2,"la1":30.2991,"la2":30.254,"lo1":-89.0895,"lo2":-89.0444,"dy":0.0017,"dx":0.0017,"nx":28,"ny":28,"refTime":"2025-07-12T03:00:00:Z","depth":"0","parameterNumber":2,"parameterNumberName":"U-component_of_CURRENTS"},"data":[0,0,0,0,0,0,0,0,0,0,0,0,0,0,0,0,0,0,0,0,0,0,0,0,0,0,0,0,0,0,0,0,0,0,0,0,0,0,0,0,0,0,0,0,0,0,0,0,0,0,0,0,0,0,0,0,0,0,0.4311,0.4312,0,0.4415,0.4417,0.4418,0.4404,0.4402,0.44,0.4399,0.4559,0.4565,0.457,0,0,0,0,0,0,0,0,0,0,0,0,0,0.4077,0.4082,0.4311,0.4313,0.4314,0.4415,0.4417,0.4418,0.4405,0.4402,0.44,0.4398,0.4557,0.4564,0.4571,0,0,0,0,0,0,0,0,0,0,0,0,0,0.4181,0.4084,0.4311,0.4318,0.432,0.4415,0.4417,0.4419,0.4405,0.4402,0.4399,0.4397,0.4554,0.4563,0.4572,0.4683,0,0,0.4599,0.4603,0,0,0,0,0,0,0,0,0.4176,0.419,0.4316,0.4318,0.432,0.4393,0.4393,0.4509,0.4406,0.4374,0.4399,0.4395,0.451,0.4522,0.4549,0.469,0.4697,0.46,0.4606,0.461,0.4612,0,0,0,0,0,0,0,0.4168,0.4186,0.4354,0.4317,0.432,0.4308,0.432,0.4415,0.4458,0.4377,0.4375,0.4386,0.4511,0.454,0.4553,0.4699,0.46,0.4608,0.4613,0.4617,0.5007,0.5012,0,0,0,0,0,0,0.4158,0.418,0.4351,0.4357,0.4238,0.4314,0.4328,0.4373,0.4456,0.4465,0.4388,0.4385,0.4526,0.4542,0.4558,0.4728,0.4609,0.4618,0.4623,0.5002,0.5008,0.5013,0,0,0,0,0,0,0.4154,0.4174,0.4346,0.4266,0.4287,0.4321,0.4372,0.4377,0.44,0.4464,0.4473,0.4405,0.4525,0.4546,0.467,0.4733,0.4622,0.463,0.4996,0.5004,0.5011,0.5047,0,0,0,0,0,0,0.4147,0.4173,0.4207,0.4268,0.4292,0.4442,0.4375,0.4381,0.4411,0.4407,0.4483,0.4495,0.4524,0.4657,0.4679,0.4743,0.4637,0.499,0.5,0.5008,0.504,0.5055,0.5068,0,0,0,0,0,0.4139,0.4221,0.4209,0.4229,0.4338,0.4445,0.446,0.4471,0.4414,0.4471,0.4507,0.4492,0.4731,0.4669,0.4693,0.4761,0.4985,0.4997,0.5008,0.5033,0.5052,0.5068,0,0,0,0,0,0,0.4159,0.4229,0.4217,0.4319,0.4383,0.4443,0.4489,0.4478,0.4548,0.4535,0.4559,0.458,0.4723,0.475,0.4679,0.4908,0.4856,0.4873,0.4868,0.4886,0.49,0.4915,0.4644,0,0,0,0,0,0.4173,0.424,0.4304,0.4387,0.4415,0.4442,0.4479,0.4493,0.4554,0.4578,0.4625,0.4692,0.4796,0.4838,0.4946,0.5062,0.509,0.5127,0.5141,0.5152,0.5188,0.5269,0.5292,0.505,0.505,0.505,0,0,0.4204,0.4248,0.4287,0.4392,0.4427,0.4502,0.446,0.454,0.4596,0.4592,0.4691,0.4761,0.4848,0.4989,0.5052,0.5007,0.524,0.5166,0.5174,0.5205,0.5283,0.5306,0.5326,0.5058,0.5056,0.5055,0,0,0.4289,0.4336,0.4404,0.446,0.4528,0.4562,0.4582,0.4653,0.4679,0.4793,0.4808,0.4915,0.5048,0.5128,0.5179,0.5344,0.533,0.5371,0.5431,0.5509,0.5528,0.5545,0.5605,0.5627,0.5353,0.5353,0.5353,0,0.4313,0.4403,0.4447,0.4519,0.4555,0.4584,0.4653,0.4718,0.4819,0.4847,0.4839,0.5046,0.5123,0.5272,0.5345,0.5374,0.5403,0.534,0.5521,0.5539,0.5555,0.5613,0.5637,0.5356,0.5356,0.5355,0.5355,0,0.4433,0.4497,0.4549,0.4631,0.4695,0.4774,0.4842,0.4908,0.4922,0.4966,0.5114,0.5225,0.5325,0.5386,0.5426,0.5591,0.557,0.5536,0.5456,0.5581,0.5635,0.5659,0.5361,0.536,0.5359,0.5358,0,0,0.4483,0.4603,0.4613,0.4633,0.4746,0.4803,0.4913,0.5009,0.5034,0.5163,0.5216,0.5439,0.5454,0.5522,0.5575,0.5671,0.5832,0.5663,0.5665,0.5686,0.5995,0.5887,0.5902,0.5807,0.5812,0.5816,0.598,0,0.4542,0.4659,0.4715,0.4811,0.4862,0.4916,0.4998,0.5086,0.5148,0.5224,0.5343,0.5442,0.5512,0.5547,0.567,0.5796,0.59,0.5791,0.5906,0.5911,0.5768,0.5928,0.5693,0.5812,0.6003,0.6007,0.601,0,0.461,0.4672,0.4767,0.4838,0.4862,0.492,0.4994,0.5079,0.5201,0.5246,0.5361,0.5435,0.5635,0.5642,0.5925,0.5843,0.5953,0.6041,0.6046,0.5955,0.5848,0.5727,0.5848,0.5656,0.6047,0.6044,0.6041,0,0.4566,0.4692,0.4747,0.4782,0.4891,0.4912,0.4963,0.5067,0.511,0.5244,0.5277,0.5488,0.557,0.5773,0.5979,0.5956,0.6252,0.621,0.6221,0.6212,0.6047,0.6015,0.5966,0.642,0.642,0.6419,0.6419,0,0.4583,0.4618,0.4713,0.4737,0.4771,0.4856,0.4887,0.4963,0.5054,0.5103,0.5265,0.5344,0.5611,0.5792,0.5988,0.6183,0.6252,0.629,0.627,0.6053,0.6022,0.5872,0.5763,0.6426,0.6424,0.6423,0.6422,0,0.4513,0.459,0.4635,0.4725,0.4745,0.4753,0.4812,0.4833,0.4934,0.5001,0.5043,0.5258,0.5489,0.5737,0.6049,0.6151,0.6185,0.6407,0.613,0.6076,0.587,0.5772,0.5624,0.548,0.645,0.6449,0.6448,0,0.4484,0.4506,0.4586,0.4592,0.4617,0.4643,0.4655,0.4756,0.4781,0.4949,0.4976,0.5198,0.5345,0.5736,0.5964,0.6244,0.6103,0.6165,0.6099,0.587,0.5748,0.5566,0.5443,0.5902,0.5896,0.5892,0.5888,0,0.4407,0.4431,0.4469,0.4487,0.449,0.4501,0.4527,0.453,0.4651,0.4722,0.4838,0.4964,0.5295,0.5471,0.5797,0.595,0.5817,0.6078,0.5919,0.5403,0.5124,0.4968,0.5773,0.5848,0.5852,0.5855,0.5857,0.5858,0.4321,0.4325,0.4369,0.437,0.4375,0.4346,0.4305,0.436,0.4391,0.4468,0.4658,0.4793,0.5057,0.5473,0.5572,0.5533,0.5552,0.5441,0.5374,0.5239,0.4983,0.5697,0.5686,0.5689,0.5691,0.5694,0.5696,0,0.4215,0.4243,0.4248,0.4237,0.4181,0.4226,0.4211,0.4155,0.4151,0.4305,0.4404,0.4571,0.4739,0.494,0.5015,0.4866,0.474,0.4731,0.4418,0.4363,0.5077,0.4933,0.4657,0.4657,0.4658,0.4658,0.4658,0.4658,0.4163,0.4148,0.4163,0.4053,0.4026,0.391,0.3871,0.3833,0.3904,0.39,0.3954,0.4074,0.4279,0.4426,0.4297,0.4233,0.3936,0.3774,0.3796,0.4273,0.4334,0.4391,0.4232,0.3813,0.3812,0.2949,0.2942,0.2936]},{"header":{"parameterUnit":"m.s-1","parameterCategory":2,"la1":30.2991,"la2":30.254,"lo1":-89.0895,"lo2":-89.0444,"dy":0.0017,"dx":0.0017,"nx":28,"ny":28,"refTime":"2025-07-12T03:00:00:Z","depth":"0","parameterNumber":3,"parameterNumberName":"V-component_of_CURRENTS"},"data":[0,0,0,0,0,0,0,0,0,0,0,0,0,0,0,0,0,0,0,0,0,0,0,0,0,0,0,0,0,0,0,0,0,0,0,0,0,0,0,0,0,0,0,0,0,0,0,0,0,0,0,0,0,0,0,0,0,0,0.0703,0.0703,0,0.067,0.067,0.067,0.0597,0.0595,0.0594,0.0592,0.0559,0.0559,0.056,0,0,0,0,0,0,0,0,0,0,0,0,0,0.0669,0.0671,0.0703,0.0703,0.0702,0.067,0.067,0.067,0.0597,0.0595,0.0593,0.0591,0.0559,0.0559,0.056,0,0,0,0,0,0,0,0,0,0,0,0,0,0.0666,0.0671,0.0703,0.0662,0.0658,0.067,0.067,0.0669,0.0597,0.0595,0.0593,0.0591,0.0559,0.0559,0.056,0.0611,0,0,0.0563,0.0563,0,0,0,0,0,0,0,0,0.0666,0.0667,0.0669,0.0665,0.066,0.0635,0.0646,0.065,0.0598,0.0621,0.0592,0.0589,0.0586,0.0584,0.0584,0.0609,0.0608,0.0563,0.0563,0.0564,0.0564,0,0,0,0,0,0,0,0.0666,0.0668,0.0691,0.0668,0.0663,0.0633,0.0631,0.0646,0.0617,0.0619,0.0613,0.061,0.0583,0.0583,0.0582,0.0608,0.0563,0.0563,0.0564,0.0564,0.071,0.0714,0,0,0,0,0,0,0.0674,0.0669,0.0692,0.069,0.0657,0.0636,0.0633,0.0646,0.0617,0.061,0.0612,0.0606,0.0583,0.0582,0.0581,0.0685,0.0564,0.0564,0.0565,0.0707,0.0711,0.0715,0,0,0,0,0,0,0.0674,0.0678,0.0693,0.0676,0.0676,0.0639,0.0654,0.0646,0.064,0.0611,0.0604,0.0611,0.0581,0.058,0.0626,0.0681,0.0565,0.0565,0.0703,0.0708,0.0713,0.0864,0,0,0,0,0,0,0.0674,0.0678,0.0698,0.0678,0.0678,0.0717,0.0656,0.0647,0.0641,0.0634,0.061,0.0604,0.0579,0.0625,0.0627,0.068,0.0566,0.0699,0.0705,0.0711,0.0854,0.0873,0.0889,0,0,0,0,0,0.0673,0.0727,0.0699,0.0702,0.0704,0.0719,0.0718,0.0682,0.0643,0.0663,0.0658,0.0604,0.0666,0.063,0.063,0.0685,0.0696,0.0703,0.0711,0.0847,0.087,0.0889,0,0,0,0,0,0,0.0756,0.0724,0.0693,0.0742,0.0731,0.0707,0.0726,0.0692,0.0701,0.0698,0.0655,0.0653,0.0714,0.0686,0.0646,0.0747,0.067,0.0678,0.0773,0.0794,0.0811,0.0842,0.0567,0,0,0,0,0,0.0776,0.0789,0.0759,0.0803,0.0794,0.0756,0.0757,0.0736,0.0735,0.0733,0.072,0.072,0.075,0.0759,0.0776,0.0835,0.0802,0.0869,0.0886,0.0901,0.093,0.0939,0.096,0.074,0.074,0.074,0,0,0.0826,0.0807,0.082,0.0817,0.08,0.0824,0.0752,0.0771,0.0808,0.0734,0.0792,0.0785,0.0782,0.0853,0.0876,0.0832,0.0946,0.0911,0.0924,0.0944,0.0949,0.097,0.0989,0.0745,0.0744,0.0743,0,0,0.0917,0.0908,0.093,0.0924,0.0903,0.0893,0.0898,0.0881,0.0886,0.0941,0.0906,0.0944,0.0967,0.099,0.1,0.1129,0.1043,0.1117,0.1228,0.1237,0.1255,0.127,0.1248,0.126,0.1121,0.1121,0.1121,0,0.0966,0.0992,0.0949,0.0966,0.0977,0.0926,0.0966,0.0984,0.0992,0.1025,0.0981,0.1059,0.1044,0.1146,0.1188,0.1171,0.1141,0.1144,0.1259,0.1274,0.1287,0.1259,0.1271,0.1129,0.1128,0.1128,0.1127,0,0.1055,0.1075,0.1099,0.1094,0.1114,0.1147,0.1148,0.1187,0.1181,0.1191,0.1281,0.1278,0.1318,0.1322,0.1294,0.1393,0.133,0.1281,0.1201,0.1318,0.1282,0.1291,0.1141,0.1138,0.1136,0.1134,0,0,0.1146,0.1152,0.1156,0.1165,0.1178,0.1204,0.1292,0.1352,0.1411,0.1437,0.1522,0.158,0.1556,0.1569,0.1538,0.155,0.1607,0.146,0.1456,0.1431,0.1602,0.1468,0.1463,0.1565,0.1568,0.157,0.1535,0,0.1211,0.126,0.1262,0.1338,0.1358,0.1368,0.1454,0.1513,0.1551,0.1629,0.1653,0.1713,0.1656,0.1669,0.1689,0.1632,0.164,0.162,0.15,0.1497,0.1358,0.1473,0.137,0.1323,0.1543,0.1545,0.1545,0,0.1272,0.1294,0.1362,0.1427,0.1443,0.1499,0.161,0.1682,0.1788,0.1819,0.1891,0.1886,0.1953,0.1858,0.1851,0.1833,0.1744,0.1683,0.1679,0.1512,0.1381,0.1246,0.1329,0.1049,0.1558,0.1557,0.1556,0,0.13,0.1366,0.142,0.1437,0.1511,0.1571,0.1631,0.1737,0.1812,0.1929,0.1981,0.2051,0.2066,0.2018,0.1905,0.1875,0.1856,0.1787,0.1589,0.1576,0.1447,0.1418,0.1244,0.1779,0.1779,0.178,0.178,0,0.1339,0.1379,0.1432,0.1453,0.1552,0.1601,0.1721,0.1796,0.1915,0.2018,0.2065,0.2144,0.2101,0.208,0.197,0.1816,0.1905,0.1641,0.1578,0.1494,0.1471,0.1184,0.106,0.1778,0.1778,0.1779,0.1779,0,0.1333,0.1365,0.1423,0.1513,0.1549,0.1614,0.1745,0.1839,0.1941,0.2076,0.2115,0.2213,0.2196,0.212,0.2027,0.1869,0.1577,0.1656,0.1545,0.147,0.0996,0.0887,0.071,0.0607,0.1442,0.1439,0.1436,0,0.1325,0.135,0.1444,0.1489,0.1523,0.1625,0.1708,0.1834,0.1934,0.2115,0.2186,0.2227,0.2287,0.2112,0.1861,0.1655,0.1463,0.1356,0.1286,0.0979,0.0812,0.0765,0.0691,0.1173,0.1168,0.1164,0.1161,0,0.1314,0.1344,0.1393,0.1482,0.1562,0.1672,0.1796,0.1875,0.204,0.2162,0.232,0.2387,0.2229,0.2019,0.17,0.1506,0.1127,0.1265,0.0998,0.0641,0.0534,0.0399,0.1161,0.1127,0.1131,0.1133,0.1135,0.1136,0.1301,0.1334,0.1403,0.149,0.1585,0.1719,0.1813,0.196,0.2126,0.2346,0.2403,0.2556,0.2184,0.1764,0.1429,0.0727,0.0859,0.0516,0.0427,0.0422,0.027,0.0936,0.079,0.0792,0.0793,0.0794,0.0795,0,0.1292,0.1341,0.1417,0.1531,0.1632,0.1696,0.1878,0.1995,0.2182,0.2419,0.2578,0.2481,0.1958,0.1424,0.0513,0.0002,-0.0123,-0.0262,-0.0351,-0.037,0.0247,0.0176,-0.0172,-0.0171,-0.0171,-0.0171,-0.017,-0.017,0.1289,0.1348,0.1395,0.1548,0.1635,0.1791,0.1895,0.2078,0.2277,0.252,0.2637,0.2715,0.219,0.0616,-0.0502,-0.0728,-0.1014,-0.1101,-0.1173,-0.0801,-0.0735,-0.0672,-0.077,-0.131,-0.1311,-0.1756,-0.1761,-0.1765]}],[{"header":{"parameterUnit":"m.s-1","parameterCategory":2,"la1":30.2991,"la2":30.254,"lo1":-89.0895,"lo2":-89.0444,"dy":0.0017,"dx":0.0017,"nx":28,"ny":28,"refTime":"2025-07-12T03:00:00:Z","depth":"2","parameterNumber":2,"parameterNumberName":"U-component_of_CURRENTS"},"data":[0,0,0,0,0,0,0,0,0,0,0,0,0,0,0,0,0,0,0,0,0,0,0,0,0,0,0,0,0,0,0,0,0,0,0,0,0,0,0,0,0,0,0,0,0,0,0,0,0,0,0,0,0,0,0,0,0,0,0.2574,0.2574,0,0.2728,0.2731,0.2734,0.2799,0.2797,0.2795,0.2794,0.2755,0.2756,0.2756,0,0,0,0,0,0,0,0,0,0,0,0,0,0.248,0.2482,0.2574,0.2574,0.2575,0.2727,0.2731,0.2734,0.2799,0.2797,0.2795,0.2793,0.2755,0.2755,0.2756,0,0,0,0,0,0,0,0,0,0,0,0,0,0.2581,0.2483,0.2574,0.2614,0.2617,0.2726,0.2731,0.2735,0.28,0.2797,0.2794,0.2792,0.2755,0.2755,0.2756,0.2815,0,0,0.2759,0.2759,0,0,0,0,0,0,0,0,0.2575,0.2587,0.2607,0.2611,0.2615,0.2727,0.2683,0.2747,0.28,0.2748,0.2794,0.2791,0.2719,0.2723,0.2784,0.2813,0.2811,0.2759,0.276,0.276,0.276,0,0,0,0,0,0,0,0.2568,0.2581,0.2651,0.2607,0.2612,0.2672,0.2684,0.2698,0.2755,0.2752,0.2753,0.2745,0.2722,0.2783,0.2782,0.2811,0.2759,0.276,0.2761,0.2761,0.2933,0.2937,0,0,0,0,0,0,0.2512,0.2574,0.2646,0.2654,0.257,0.2674,0.2688,0.2707,0.2759,0.2762,0.2747,0.2747,0.2783,0.2781,0.278,0.2861,0.276,0.2761,0.2762,0.2929,0.2934,0.2938,0,0,0,0,0,0,0.251,0.2519,0.2639,0.2603,0.262,0.2675,0.2698,0.2711,0.2805,0.2755,0.2756,0.2828,0.2781,0.2779,0.2814,0.2858,0.2761,0.2762,0.2924,0.293,0.2936,0.3014,0,0,0,0,0,0,0.2508,0.2518,0.2546,0.26,0.2619,0.27,0.2699,0.2716,0.2794,0.2797,0.2824,0.2816,0.2778,0.2813,0.2815,0.2858,0.2763,0.2919,0.2927,0.2934,0.3007,0.3022,0.3036,0,0,0,0,0,0.2505,0.2524,0.2547,0.2556,0.2646,0.27,0.2719,0.2759,0.28,0.2841,0.2866,0.2817,0.2863,0.2817,0.2818,0.2862,0.2915,0.2925,0.2933,0.3,0.3019,0.3035,0,0,0,0,0,0,0.2485,0.2534,0.2559,0.2591,0.2642,0.2704,0.2746,0.2799,0.287,0.2884,0.2863,0.2857,0.2901,0.2893,0.2844,0.2942,0.2885,0.2895,0.2936,0.2953,0.2968,0.2869,0.2764,0,0,0,0,0,0.2495,0.2525,0.258,0.2602,0.2641,0.2721,0.2764,0.2801,0.2848,0.2884,0.29,0.2926,0.2945,0.2955,0.2963,0.3023,0.3004,0.3059,0.3074,0.3086,0.3013,0.3081,0.3093,0.2968,0.2968,0.2968,0,0,0.2475,0.2514,0.2523,0.2601,0.2659,0.2685,0.2746,0.2818,0.2835,0.2861,0.2917,0.2971,0.2974,0.3024,0.3046,0.3018,0.3127,0.3097,0.3107,0.3025,0.3091,0.3102,0.3112,0.2974,0.2973,0.2972,0,0,0.2429,0.2514,0.2521,0.2572,0.2651,0.2702,0.2731,0.2834,0.2886,0.2958,0.2979,0.3052,0.3104,0.3105,0.3111,0.3219,0.3198,0.3268,0.3257,0.3329,0.3337,0.3344,0.3382,0.3391,0.328,0.328,0.328,0,0.2414,0.2436,0.2529,0.255,0.2586,0.2704,0.2725,0.2788,0.2882,0.2938,0.2965,0.3108,0.3117,0.3163,0.3195,0.3239,0.3277,0.3186,0.3341,0.3347,0.3353,0.3389,0.3399,0.3285,0.3284,0.3284,0.3283,0,0.2351,0.2397,0.2415,0.2474,0.2531,0.2582,0.2661,0.2752,0.2858,0.2921,0.3043,0.3105,0.3183,0.3235,0.3231,0.3307,0.3323,0.3348,0.3279,0.3369,0.3404,0.3412,0.3292,0.329,0.3289,0.3288,0,0,0.2255,0.2356,0.2364,0.2407,0.2518,0.2561,0.2619,0.2721,0.2797,0.2912,0.301,0.3082,0.3183,0.3195,0.3263,0.331,0.341,0.3346,0.3348,0.3348,0.3565,0.339,0.3382,0.3492,0.3493,0.3493,0.3588,0,0.2195,0.2229,0.2288,0.2326,0.2377,0.2506,0.2546,0.2654,0.279,0.2912,0.3022,0.3129,0.3149,0.3247,0.3293,0.3397,0.3428,0.3378,0.3501,0.3502,0.3308,0.3383,0.32,0.325,0.3595,0.3596,0.3597,0,0.2117,0.217,0.2203,0.2323,0.2357,0.2381,0.2556,0.261,0.2783,0.2902,0.3041,0.3147,0.3249,0.3267,0.3409,0.3399,0.3448,0.3502,0.351,0.3291,0.3339,0.3212,0.3251,0.361,0.3609,0.3608,0.3607,0,0.2039,0.2117,0.2158,0.219,0.2317,0.2374,0.2457,0.2624,0.2716,0.2917,0.3031,0.3174,0.3297,0.3373,0.3494,0.3483,0.3638,0.3654,0.3517,0.3507,0.3328,0.3297,0.3687,0.3687,0.3687,0.3686,0.3686,0,0.1972,0.2006,0.2132,0.2154,0.2221,0.2335,0.2437,0.256,0.2741,0.2864,0.3023,0.3159,0.3335,0.3463,0.3518,0.3544,0.3673,0.3472,0.3506,0.3357,0.3329,0.3606,0.3596,0.369,0.3689,0.3689,0.3688,0,0.1876,0.1953,0.2009,0.2143,0.2185,0.2242,0.2411,0.2493,0.268,0.2854,0.2925,0.3185,0.338,0.3503,0.3675,0.3574,0.3622,0.3587,0.3373,0.3373,0.3429,0.3423,0.3418,0.3412,0.3407,0.3403,0.34,0,0.1829,0.1849,0.198,0.2017,0.2077,0.2181,0.225,0.2447,0.2555,0.2872,0.2946,0.3204,0.3356,0.3502,0.3495,0.3519,0.3605,0.3223,0.3097,0.3359,0.3396,0.3397,0.3397,0.2947,0.294,0.2934,0.293,0,0.1741,0.1794,0.1845,0.1928,0.1997,0.2076,0.221,0.2281,0.2534,0.2685,0.2929,0.3075,0.3273,0.3243,0.3235,0.3205,0.3196,0.3096,0.3498,0.3,0.2911,0.2948,0.2965,0.288,0.2885,0.2889,0.2891,0.2893,0.1676,0.169,0.1765,0.1835,0.1905,0.1979,0.2018,0.2178,0.2326,0.2526,0.2743,0.2863,0.2935,0.2847,0.2808,0.2768,0.293,0.2738,0.2759,0.2786,0.2671,0.2572,0.2458,0.246,0.2462,0.2464,0.2466,0,0.1593,0.1628,0.1674,0.1749,0.1776,0.1874,0.1985,0.2008,0.2138,0.2315,0.2458,0.2289,0.2317,0.2459,0.2336,0.2238,0.2268,0.2135,0.2195,0.2245,0.2289,0.2152,0.1801,0.1798,0.1796,0.1794,0,0,0.1548,0.1555,0.1585,0.1607,0.1667,0.1692,0.1738,0.1795,0.1894,0.1895,0.1945,0.211,0.2305,0.198,0.1957,0.1887,0.2044,0.1814,0.2354,0.2474,0.2515,0.2646,0.249,0,0,0,0,0]},{"header":{"parameterUnit":"m.s-1","parameterCategory":2,"la1":30.2991,"la2":30.254,"lo1":-89.0895,"lo2":-89.0444,"dy":0.0017,"dx":0.0017,"nx":28,"ny":28,"refTime":"2025-07-12T03:00:00:Z","depth":"2","parameterNumber":3,"parameterNumberName":"V-component_of_CURRENTS"},"data":[0,0,0,0,0,0,0,0,0,0,0,0,0,0,0,0,0,0,0,0,0,0,0,0,0,0,0,0,0,0,0,0,0,0,0,0,0,0,0,0,0,0,0,0,0,0,0,0,0,0,0,0,0,0,0,0,0,0,-0.0908,-0.0909,0,-0.091,-0.0909,-0.0908,-0.0908,-0.0909,-0.091,-0.0911,-0.1034,-0.1036,-0.1038,0,0,0,0,0,0,0,0,0,0,0,0,0,-0.0787,-0.0789,-0.0908,-0.0909,-0.091,-0.0911,-0.0909,-0.0908,-0.0907,-0.0909,-0.091,-0.0911,-0.1033,-0.1036,-0.1038,0,0,0,0,0,0,0,0,0,0,0,0,0,-0.0808,-0.079,-0.0907,-0.0919,-0.0921,-0.0911,-0.0909,-0.0908,-0.0907,-0.0909,-0.091,-0.0912,-0.1032,-0.1036,-0.1039,-0.1026,0,0,-0.1049,-0.1051,0,0,0,0,0,0,0,0,-0.0807,-0.0811,-0.0916,-0.0919,-0.0921,-0.0922,-0.0913,-0.0958,-0.0907,-0.0899,-0.0911,-0.0913,-0.1015,-0.102,-0.0996,-0.1032,-0.1037,-0.1049,-0.1051,-0.1053,-0.1054,0,0,0,0,0,0,0,-0.0805,-0.081,-0.0896,-0.0918,-0.0921,-0.0886,-0.089,-0.0919,-0.094,-0.09,-0.0903,-0.0923,-0.1015,-0.0993,-0.1,-0.1039,-0.1049,-0.1052,-0.1054,-0.1056,-0.1095,-0.1094,0,0,0,0,0,0,-0.0835,-0.0809,-0.0896,-0.0897,-0.0881,-0.0888,-0.0892,-0.0909,-0.0937,-0.0945,-0.0922,-0.0923,-0.0986,-0.0996,-0.1005,-0.1011,-0.1053,-0.1056,-0.1058,-0.1096,-0.1095,-0.1094,0,0,0,0,0,0,-0.0833,-0.0843,-0.0896,-0.0863,-0.087,-0.0891,-0.0908,-0.0909,-0.0859,-0.0955,-0.0963,-0.0871,-0.0988,-0.1,-0.1037,-0.1016,-0.1057,-0.106,-0.1097,-0.1096,-0.1095,-0.1013,0,0,0,0,0,0,-0.0829,-0.0841,-0.0834,-0.0866,-0.0873,-0.0884,-0.0908,-0.0908,-0.0877,-0.0878,-0.0914,-0.0929,-0.099,-0.1032,-0.1041,-0.1021,-0.1063,-0.1099,-0.1097,-0.1095,-0.1017,-0.1009,-0.1002,0,0,0,0,0,-0.0824,-0.0824,-0.0833,-0.0843,-0.0872,-0.0884,-0.0881,-0.0894,-0.0873,-0.085,-0.0891,-0.0926,-0.1026,-0.1034,-0.1044,-0.1025,-0.1099,-0.1097,-0.1095,-0.102,-0.101,-0.1002,0,0,0,0,0,0,-0.0777,-0.0826,-0.0837,-0.0853,-0.0865,-0.0889,-0.0869,-0.086,-0.0859,-0.0863,-0.092,-0.0938,-0.0968,-0.0998,-0.1005,-0.1031,-0.1065,-0.1065,-0.1004,-0.0995,-0.0988,-0.0981,-0.1066,0,0,0,0,0,-0.0764,-0.0769,-0.0812,-0.0821,-0.0821,-0.0824,-0.0817,-0.083,-0.0853,-0.0848,-0.0872,-0.0912,-0.0965,-0.0982,-0.1033,-0.1035,-0.106,-0.1027,-0.1019,-0.1013,-0.1013,-0.1045,-0.104,-0.1087,-0.1087,-0.1087,0,0,-0.0752,-0.0779,-0.0782,-0.0809,-0.0809,-0.0814,-0.0819,-0.0814,-0.0812,-0.0868,-0.0847,-0.0891,-0.0963,-0.0991,-0.1002,-0.1012,-0.1005,-0.101,-0.1004,-0.1009,-0.1042,-0.1038,-0.1034,-0.1086,-0.1086,-0.1086,0,0,-0.0737,-0.0745,-0.0741,-0.075,-0.0769,-0.078,-0.0767,-0.0769,-0.0757,-0.0758,-0.0811,-0.0835,-0.0876,-0.0932,-0.0967,-0.0938,-0.0975,-0.0941,-0.0888,-0.0918,-0.0914,-0.0912,-0.0904,-0.0902,-0.0925,-0.0925,-0.0925,0,-0.0717,-0.0722,-0.0738,-0.0743,-0.0736,-0.0757,-0.0739,-0.0746,-0.0758,-0.0735,-0.0752,-0.0795,-0.0853,-0.0897,-0.0902,-0.0922,-0.0934,-0.0918,-0.0908,-0.0907,-0.0905,-0.0899,-0.0897,-0.0921,-0.0921,-0.0922,-0.0922,0,-0.0706,-0.0701,-0.0695,-0.0707,-0.07,-0.0689,-0.0717,-0.069,-0.0667,-0.0672,-0.0672,-0.0746,-0.0762,-0.0787,-0.0846,-0.0858,-0.0865,-0.0905,-0.093,-0.0896,-0.089,-0.089,-0.0915,-0.0916,-0.0918,-0.0919,0,0,-0.0679,-0.0682,-0.0678,-0.0643,-0.0668,-0.0648,-0.065,-0.0628,-0.0574,-0.0611,-0.0543,-0.0653,-0.0654,-0.0696,-0.0754,-0.0792,-0.0792,-0.0837,-0.084,-0.0826,-0.0827,-0.0837,-0.0837,-0.0831,-0.0831,-0.0831,-0.0813,0,-0.065,-0.0623,-0.064,-0.0588,-0.0555,-0.0565,-0.054,-0.0533,-0.0516,-0.0464,-0.0539,-0.0527,-0.0634,-0.0619,-0.068,-0.0755,-0.0793,-0.0791,-0.0865,-0.0866,-0.0879,-0.0839,-0.0796,-0.0779,-0.0814,-0.0814,-0.0814,0,-0.0621,-0.0599,-0.0541,-0.0467,-0.0447,-0.043,-0.0336,-0.0325,-0.0314,-0.0289,-0.0313,-0.0358,-0.0417,-0.0507,-0.0634,-0.0624,-0.0724,-0.0799,-0.08,-0.0844,-0.0878,-0.0826,-0.0778,-0.0814,-0.0814,-0.0814,-0.0814,0,-0.0544,-0.051,-0.0437,-0.0425,-0.0376,-0.0323,-0.0292,-0.026,-0.0191,-0.0181,-0.0112,-0.0211,-0.02,-0.0367,-0.0525,-0.0572,-0.0651,-0.0727,-0.0837,-0.0837,-0.0833,-0.0833,-0.0837,-0.0837,-0.0837,-0.0837,-0.0837,0,-0.0485,-0.0423,-0.0388,-0.0348,-0.022,-0.0227,-0.0096,-0.0072,-0.0012,0.0105,-0.0014,0.0057,-0.0168,-0.024,-0.0444,-0.0608,-0.0583,-0.0818,-0.0838,-0.0799,-0.0796,-0.0868,-0.0872,-0.0836,-0.0836,-0.0836,-0.0836,0,-0.0401,-0.0392,-0.0294,-0.0222,-0.0181,-0.009,0.0032,0.0131,0.016,0.0308,0.0325,0.0291,0.0203,-0.0025,-0.0238,-0.0452,-0.0645,-0.0722,-0.0642,-0.0655,-0.0833,-0.0833,-0.0839,-0.0839,-0.084,-0.084,-0.084,0,-0.0348,-0.0296,-0.0188,-0.0107,-0.0065,0.0055,0.0158,0.0216,0.0335,0.0464,0.0567,0.0526,0.0522,0.0209,-0.0156,-0.0481,-0.0567,-0.0679,-0.0799,-0.0817,-0.0835,-0.0835,-0.0834,-0.074,-0.0739,-0.0739,-0.0739,0,-0.0231,-0.0199,-0.0117,0.0034,0.0156,0.0304,0.0449,0.057,0.0677,0.0793,0.0959,0.0955,0.0673,0.0359,-0.0106,-0.0345,-0.0631,-0.0681,-0.0696,-0.0758,-0.0726,-0.0744,-0.0746,-0.0734,-0.0734,-0.0735,-0.0735,-0.0735,-0.013,-0.0049,0.0057,0.0213,0.0357,0.056,0.0702,0.0874,0.1079,0.1248,0.1206,0.1175,0.0776,0.0182,-0.0157,-0.0526,-0.0583,-0.0766,-0.0767,-0.0768,-0.0772,-0.0744,-0.0752,-0.0753,-0.0753,-0.0754,-0.0754,0,0.0003,0.0092,0.0238,0.0432,0.0618,0.0661,0.092,0.108,0.1347,0.1389,0.1454,0.1047,0.0688,0.0291,-0.0254,-0.0625,-0.065,-0.0712,-0.0683,-0.0687,-0.0691,-0.069,-0.0649,-0.0649,-0.0649,-0.0649,0,0,0.0084,0.0242,0.0315,0.0641,0.078,0.104,0.1195,0.1431,0.1529,0.1545,0.1449,0.1234,0.0755,0.0361,-0.0095,-0.0343,-0.0426,-0.039,-0.0451,-0.0368,-0.0366,-0.0712,-0.0714,0,0,0,0,0]}],[{"header":{"parameterUnit":"m.s-1","parameterCategory":2,"la1":30.2991,"la2":30.254,"lo1":-89.0895,"lo2":-89.0444,"dy":0.0017,"dx":0.0017,"nx":28,"ny":28,"refTime":"2025-07-12T03:00:00:Z","depth":"4","parameterNumber":2,"parameterNumberName":"U-component_of_CURRENTS"},"data":[0,0,0,0,0,0,0,0,0,0,0,0,0,0,0,0,0,0,0,0,0,0,0,0,0,0,0,0,0,0,0,0,0,0,0,0,0,0,0,0,0,0,0,0,0,0,0,0,0,0,0,0,0,0,0,0,0,0,0.0742,0.0744,0,0.0786,0.0785,0.0784,0.0942,0.0947,0.0952,0.0958,0.1042,0.104,0.1037,0,0,0,0,0,0,0,0,0,0,0,0,0,0.0648,0.0648,0.0742,0.0745,0.0747,0.0786,0.0785,0.0784,0.0941,0.0947,0.0954,0.096,0.1043,0.104,0.1037,0,0,0,0,0,0,0,0,0,0,0,0,0,0.0671,0.0648,0.0742,0.0845,0.0856,0.0787,0.0785,0.0783,0.0939,0.0947,0.0956,0.0963,0.1044,0.104,0.1036,0.0849,0,0,0.1024,0.1022,0,0,0,0,0,0,0,0,0.067,0.0672,0.0827,0.0838,0.085,0.0884,0.0784,0.0814,0.0937,0.0886,0.0958,0.0967,0.1,0.1,0.0962,0.0853,0.0856,0.1023,0.1021,0.1019,0.1018,0,0,0,0,0,0,0,0.0668,0.067,0.074,0.0829,0.0844,0.084,0.0851,0.0788,0.0883,0.0891,0.0908,0.0942,0.1005,0.0965,0.0965,0.0858,0.1023,0.102,0.1017,0.1016,0.1001,0.1003,0,0,0,0,0,0,0.0701,0.0668,0.0739,0.0743,0.08,0.0837,0.0849,0.0849,0.0883,0.0902,0.0935,0.0949,0.0968,0.097,0.0969,0.1079,0.1019,0.1015,0.1013,0.0999,0.1001,0.1003,0,0,0,0,0,0,0.0697,0.0704,0.0737,0.0725,0.0732,0.0833,0.083,0.0846,0.0919,0.0919,0.0937,0.101,0.0974,0.0975,0.1057,0.1073,0.1013,0.1009,0.0996,0.0999,0.1002,0.1089,0,0,0,0,0,0,0.0693,0.0701,0.0716,0.0726,0.0735,0.0788,0.0825,0.0842,0.093,0.0952,0.0984,0.0995,0.0981,0.1064,0.1053,0.1066,0.1006,0.0993,0.0997,0.1001,0.1083,0.1095,0.1104,0,0,0,0,0,0.0689,0.0719,0.0715,0.0726,0.0749,0.0792,0.0794,0.0879,0.0928,0.0968,0.1028,0.1,0.1081,0.1062,0.1049,0.1061,0.0991,0.0996,0.1001,0.1079,0.1092,0.1104,0,0,0,0,0,0,0.0695,0.0738,0.0736,0.0777,0.0814,0.083,0.0866,0.0913,0.0973,0.1008,0.1018,0.1031,0.1099,0.1072,0.1052,0.1074,0.103,0.1032,0.1094,0.1106,0.1116,0.111,0.1003,0,0,0,0,0,0.0689,0.0718,0.0752,0.0782,0.0797,0.0825,0.0857,0.0912,0.0966,0.1004,0.1031,0.1058,0.1071,0.1102,0.109,0.109,0.1073,0.1094,0.1105,0.1114,0.1104,0.1106,0.1115,0.1019,0.1019,0.1019,0,0,0.0689,0.0726,0.0737,0.0785,0.0793,0.082,0.0863,0.0932,0.0976,0.0991,0.1064,0.1085,0.1083,0.1111,0.1136,0.1117,0.1143,0.112,0.1127,0.1112,0.1112,0.1121,0.1129,0.1022,0.1021,0.1021,0,0,0.0701,0.0734,0.0748,0.0786,0.0849,0.0865,0.0911,0.0956,0.1011,0.1072,0.11,0.1161,0.1169,0.1177,0.1178,0.1229,0.1193,0.1234,0.128,0.1284,0.1292,0.1297,0.1327,0.1335,0.1245,0.1245,0.1245,0,0.0695,0.0725,0.0764,0.0795,0.084,0.0899,0.0929,0.096,0.1045,0.1082,0.1134,0.1185,0.1187,0.1222,0.1261,0.1246,0.1261,0.1233,0.1296,0.1301,0.1306,0.1334,0.1342,0.125,0.1249,0.1249,0.1248,0,0.0695,0.0747,0.0768,0.081,0.0857,0.091,0.0963,0.1022,0.1096,0.1133,0.1222,0.1244,0.1288,0.1294,0.1296,0.1329,0.1336,0.1303,0.1259,0.1321,0.1348,0.1354,0.1257,0.1255,0.1254,0.1252,0,0,0.062,0.0737,0.0753,0.0782,0.0884,0.0912,0.0988,0.1058,0.113,0.1203,0.1284,0.1318,0.1357,0.1362,0.1372,0.1383,0.1439,0.1374,0.1372,0.1396,0.1486,0.1428,0.1429,0.143,0.1431,0.1432,0.1506,0,0.0606,0.0674,0.0744,0.0812,0.0845,0.0936,0.101,0.1091,0.1177,0.1267,0.131,0.1388,0.1375,0.143,0.1435,0.1434,0.1455,0.1424,0.1429,0.1429,0.1362,0.1432,0.1434,0.151,0.1511,0.1512,0.1513,0,0.059,0.0643,0.071,0.0834,0.0855,0.0916,0.1046,0.1126,0.1257,0.1334,0.1417,0.1462,0.1511,0.1492,0.1518,0.1511,0.1506,0.15,0.1502,0.1411,0.138,0.1427,0.1523,0.1523,0.1522,0.1521,0.152,0,0.053,0.0633,0.0692,0.073,0.0863,0.0923,0.1012,0.1157,0.1233,0.1392,0.1463,0.1535,0.1596,0.1587,0.1583,0.1569,0.1602,0.157,0.1514,0.1512,0.15,0.1492,0.1577,0.1577,0.1576,0.1576,0.1576,0,0.0514,0.0559,0.0676,0.0707,0.0802,0.0907,0.1037,0.1149,0.1295,0.1386,0.1499,0.1561,0.1624,0.1648,0.1618,0.1592,0.163,0.1531,0.1522,0.1543,0.1539,0.1507,0.1498,0.1579,0.1578,0.1578,0.1577,0,0.0451,0.0537,0.0598,0.0727,0.079,0.0859,0.105,0.1128,0.1291,0.141,0.1463,0.1599,0.1659,0.1689,0.1705,0.1645,0.1616,0.1592,0.165,0.1641,0.1522,0.1517,0.1551,0.1549,0.1548,0.1547,0.1546,0,0.0429,0.0459,0.0595,0.0648,0.0718,0.0849,0.0956,0.1135,0.1209,0.1403,0.1431,0.1563,0.1636,0.1623,0.1658,0.1646,0.1609,0.1606,0.153,0.153,0.1518,0.1515,0.1512,0.1544,0.1543,0.1543,0.1543,0,0.0364,0.0421,0.0464,0.0588,0.0693,0.0791,0.094,0.0984,0.1181,0.1305,0.1397,0.1457,0.154,0.1581,0.1609,0.157,0.1612,0.1592,0.1593,0.1522,0.1522,0.1511,0.1509,0.1538,0.1539,0.1539,0.1539,0,0.0314,0.0325,0.0412,0.0515,0.0632,0.0715,0.0803,0.0909,0.1018,0.1227,0.1248,0.1387,0.152,0.1541,0.1532,0.1539,0.1508,0.1448,0.1456,0.1462,0.1397,0.1382,0.1355,0,0,0,0,0,0.027,0.0283,0.0345,0.0459,0.0562,0.064,0.0784,0.0863,0.1041,0.1078,0.1169,0.1243,0.1323,0.1386,0.1374,0.1471,0.149,0.145,0.1417,0.1513,0.1518,0.1449,0,0,0,0,0,0,0.0235,0.0277,0.0309,0.0401,0.046,0.0573,0.0654,0.0761,0.0801,0.0976,0.1024,0.1166,0.1248,0.1312,0.1346,0.1366,0.1322,0.154,0.1538,0.151,0.1514,0.1519,0.1449,0,0,0,0,0]},{"header":{"parameterUnit":"m.s-1","parameterCategory":2,"la1":30.2991,"la2":30.254,"lo1":-89.0895,"lo2":-89.0444,"dy":0.0017,"dx":0.0017,"nx":28,"ny":28,"refTime":"2025-07-12T03:00:00:Z","depth":"4","parameterNumber":3,"parameterNumberName":"V-component_of_CURRENTS"},"data":[0,0,0,0,0,0,0,0,0,0,0,0,0,0,0,0,0,0,0,0,0,0,0,0,0,0,0,0,0,0,0,0,0,0,0,0,0,0,0,0,0,0,0,0,0,0,0,0,0,0,0,0,0,0,0,0,0,0,0.0095,0.0094,0,0.0047,0.0047,0.0047,0.0017,0.0016,0.0015,0.0015,-0.0152,-0.0156,-0.016,0,0,0,0,0,0,0,0,0,0,0,0,0,0.0116,0.0116,0.0095,0.0094,0.0092,0.0047,0.0047,0.0047,0.0017,0.0016,0.0015,0.0014,-0.0151,-0.0156,-0.016,0,0,0,0,0,0,0,0,0,0,0,0,0,0.0097,0.0117,0.0095,0.0067,0.0064,0.0047,0.0047,0.0047,0.0017,0.0016,0.0015,0.0014,-0.015,-0.0155,-0.0161,-0.0173,0,0,-0.0178,-0.018,0,0,0,0,0,0,0,0,0.0099,0.0098,0.0073,0.0069,0.0065,0.0031,-0.0007,-0.0035,0.0018,0.0042,0.0015,0.0013,-0.0106,-0.0115,-0.011,-0.0181,-0.0188,-0.0178,-0.0182,-0.0184,-0.0186,0,0,0,0,0,0,0,0.01,0.0099,0.0082,0.0071,0.0067,0.0042,0.0039,-0.0012,-0.0022,0.004,0.0036,0.0021,-0.0108,-0.0105,-0.0115,-0.019,-0.0178,-0.0183,-0.0187,-0.0189,-0.0358,-0.0359,0,0,0,0,0,0,0.0097,0.0101,0.0084,0.008,0.0072,0.0042,0.0039,0.0049,-0.0019,-0.0032,0.0022,0.0019,-0.0095,-0.0108,-0.0121,-0.0198,-0.0184,-0.019,-0.0193,-0.0357,-0.0359,-0.036,0,0,0,0,0,0,0.0098,0.0097,0.0085,0.0083,0.0078,0.0043,0.0053,0.0048,0.003,-0.0033,-0.0046,0.0005,-0.0096,-0.0114,-0.0203,-0.0203,-0.0192,-0.0197,-0.0356,-0.0358,-0.0359,-0.0316,0,0,0,0,0,0,0.01,0.0099,0.0105,0.0083,0.0078,0.0062,0.0053,0.0048,0.002,0.0016,-0.0051,-0.0066,-0.0098,-0.0195,-0.0209,-0.0211,-0.0202,-0.0355,-0.0357,-0.0359,-0.0316,-0.0316,-0.0316,0,0,0,0,0,0.0101,0.0113,0.0106,0.0103,0.0089,0.006,0.0056,0.003,0.002,0.0011,-0.0051,-0.0065,-0.0217,-0.0201,-0.0217,-0.0221,-0.0354,-0.0356,-0.0359,-0.0316,-0.0316,-0.0316,0,0,0,0,0,0,0.0116,0.011,0.0102,0.0109,0.0078,0.0052,0.0045,0.0023,-0.0026,-0.0038,-0.0092,-0.0112,-0.019,-0.0219,-0.0199,-0.0277,-0.0282,-0.0288,-0.0244,-0.0245,-0.0245,-0.0214,-0.0206,0,0,0,0,0,0.0125,0.0139,0.011,0.0112,0.0102,0.0072,0.0056,0.0033,-0.0014,-0.0034,-0.0084,-0.0144,-0.0206,-0.0239,-0.0297,-0.0343,-0.0369,-0.0354,-0.0354,-0.0354,-0.0341,-0.0389,-0.0391,-0.0368,-0.0368,-0.0368,0,0,0.0134,0.0126,0.0136,0.0116,0.0099,0.0096,0.0062,0.0033,0.0027,-0.0049,-0.0081,-0.0157,-0.0225,-0.028,-0.0314,-0.0306,-0.0377,-0.0357,-0.0356,-0.0343,-0.0392,-0.0394,-0.0396,-0.037,-0.037,-0.0369,0,0,0.0157,0.015,0.0172,0.0151,0.0114,0.0098,0.0085,0.0047,0.0027,-0.0028,-0.0086,-0.0166,-0.0243,-0.029,-0.0324,-0.0361,-0.0386,-0.0379,-0.0341,-0.0388,-0.039,-0.0391,-0.0432,-0.0438,-0.0365,-0.0365,-0.0365,0,0.0172,0.019,0.0166,0.0171,0.0158,0.0102,0.0108,0.0086,0.0018,-0.0013,-0.0037,-0.0179,-0.0239,-0.031,-0.032,-0.0357,-0.0388,-0.0331,-0.0385,-0.0387,-0.039,-0.0431,-0.0438,-0.0363,-0.0364,-0.0364,-0.0364,0,0.0209,0.0216,0.022,0.0224,0.0205,0.0191,0.0155,0.012,0.008,0.0042,-0.0054,-0.0144,-0.0226,-0.0258,-0.0298,-0.035,-0.0369,-0.0388,-0.0375,-0.0389,-0.0433,-0.044,-0.0361,-0.0361,-0.0362,-0.0362,0,0,0.0262,0.0257,0.0258,0.0259,0.0227,0.0213,0.0197,0.0156,0.0128,0.0054,0.0008,-0.01,-0.0165,-0.0208,-0.0279,-0.0315,-0.0365,-0.0348,-0.0352,-0.0371,-0.0468,-0.0445,-0.0451,-0.0392,-0.0393,-0.0394,-0.0493,0,0.0298,0.0326,0.0312,0.0323,0.0327,0.0274,0.0265,0.021,0.015,0.0089,-0.0012,-0.0088,-0.0137,-0.0193,-0.0238,-0.0349,-0.0382,-0.0336,-0.0467,-0.0471,-0.0434,-0.0458,-0.0397,-0.0499,-0.0501,-0.0502,-0.0503,0,0.0331,0.0344,0.0376,0.0359,0.0358,0.0363,0.0309,0.0289,0.0193,0.0137,0.0045,-0.0043,-0.0138,-0.0168,-0.032,-0.0291,-0.0366,-0.0434,-0.044,-0.0433,-0.0461,-0.0486,-0.0517,-0.0516,-0.0515,-0.0514,-0.0513,0,0.0358,0.0377,0.0406,0.0402,0.0388,0.0387,0.0374,0.0299,0.0268,0.0165,0.0115,-0.0011,-0.0086,-0.0193,-0.0338,-0.0334,-0.0495,-0.051,-0.0556,-0.0556,-0.0563,-0.0561,-0.0592,-0.0592,-0.0592,-0.0592,-0.0591,0,0.0382,0.0398,0.0425,0.0435,0.0452,0.0428,0.0419,0.0373,0.0304,0.0258,0.0147,0.0077,-0.0094,-0.0214,-0.033,-0.0467,-0.049,-0.0549,-0.0578,-0.0546,-0.054,-0.0569,-0.0565,-0.0595,-0.0595,-0.0594,-0.0593,0,0.0386,0.041,0.0434,0.0453,0.0464,0.047,0.0464,0.044,0.0381,0.0316,0.0286,0.0132,-0.0025,-0.0191,-0.0383,-0.0453,-0.059,-0.0627,-0.0579,-0.0605,-0.0621,-0.0614,-0.0688,-0.0688,-0.0688,-0.0688,-0.0688,0,0.0385,0.0406,0.0451,0.0471,0.0487,0.0504,0.0508,0.0475,0.0449,0.0345,0.0311,0.0155,0.004,-0.0209,-0.0377,-0.0589,-0.0609,-0.0666,-0.0638,-0.0609,-0.0631,-0.0623,-0.0617,-0.0688,-0.0688,-0.0688,-0.0688,0,0.0377,0.0403,0.0425,0.0476,0.0505,0.0523,0.0534,0.0525,0.0473,0.0434,0.0323,0.0178,0.0003,-0.02,-0.0364,-0.0514,-0.0625,-0.0666,-0.0667,-0.0642,-0.061,-0.063,-0.0623,-0.0688,-0.0688,-0.0688,-0.0688,0,0.0365,0.0379,0.0422,0.0457,0.0499,0.0517,0.053,0.0509,0.0486,0.0396,0.0362,0.0171,0.006,-0.0162,-0.0318,-0.0461,-0.049,-0.0511,-0.052,-0.0522,-0.044,-0.0373,-0.0402,0,0,0,0,0,0.0343,0.0361,0.0397,0.0436,0.048,0.0504,0.0525,0.0531,0.051,0.0446,0.0406,0.0245,0.0004,-0.0111,-0.025,-0.0326,-0.0522,-0.049,-0.0553,-0.0687,-0.0687,-0.0616,0,0,0,0,0,0,0.0326,0.0361,0.0383,0.0411,0.0438,0.0478,0.0495,0.0487,0.0453,0.042,0.0291,0.0235,-0.0007,0.0081,-0.0248,-0.0294,-0.0344,-0.0605,-0.0607,-0.0687,-0.0687,-0.0687,-0.0614,0,0,0,0,0]}]]